[[{"header":{"parameterUnit":"m.s-1","parameterCategory":1,"la1":30.2991,"la2":30.254,"lo1":-89.0895,"lo2":-89.0444,"dy":0.0017,"dx":0.0017,"nx":28,"ny":28,"refTime":"2025-03-01T09:00:00:Z","depth":0,"parameterNumber":2,"parameterNumberName":"U-component_of_WINDS"},"data":[0,0,0,0,0,0,0,0,0,0,0,0,0,0,0,0,0,0,0,0,0,0,0,0,0,0,0,0,0,0,0,0,0,0,0,0,0,0,0,0,0,0,0,0,0,0,0,0,0,0,0,0,0,0,0,0,0,0,-5.1409,-5.1409,0,-5.1449,-5.1449,-5.145,-5.1282,-5.1277,-5.1272,-5.1267,-5.131,-5.1315,-5.1321,0,0,0,0,0,0,0,0,0,0,0,0,0,-5.1187,-5.1192,-5.1408,-5.1409,-5.141,-5.1449,-5.1449,-5.145,-5.1283,-5.1277,-5.1271,-5.1265,-5.1308,-5.1314,-5.1321,0,0,0,0,0,0,0,0,0,0,0,0,0,-5.1261,-5.1194,-5.1408,-5.1331,-5.1324,-5.1449,-5.1449,-5.145,-5.1284,-5.1276,-5.1269,-5.1262,-5.1305,-5.1314,-5.1322,-5.1524,0,0,-5.1349,-5.1352,0,0,0,0,0,0,0,0,-5.1257,-5.127,-5.1342,-5.1336,-5.1329,-5.1353,-5.1387,-5.1475,-5.1286,-5.1299,-5.1267,-5.1258,-5.133,-5.1336,-5.136,-5.1526,-5.1527,-5.1349,-5.1355,-5.1358,-5.1361,0,0,0,0,0,0,0,-5.1252,-5.1267,-5.1424,-5.1343,-5.1335,-5.1294,-5.1296,-5.1403,-5.1356,-5.1297,-5.1285,-5.1292,-5.1325,-5.1352,-5.136,-5.1528,-5.1349,-5.1357,-5.1362,-5.1365,-5.186,-5.1867,0,0,0,0,0,0,-5.1257,-5.1264,-5.1423,-5.1425,-5.1274,-5.1304,-5.1307,-5.1353,-5.1354,-5.1347,-5.1299,-5.1284,-5.1341,-5.135,-5.1361,-5.1595,-5.1358,-5.1366,-5.1371,-5.1852,-5.1862,-5.187,0,0,0,0,0,0,-5.1253,-5.1273,-5.1421,-5.1341,-5.1357,-5.1316,-5.1369,-5.1357,-5.1384,-5.1355,-5.1346,-5.1335,-5.1335,-5.1348,-5.1484,-5.1594,-5.137,-5.1378,-5.1842,-5.1855,-5.1866,-5.2067,0,0,0,0,0,0,-5.1248,-5.1273,-5.1349,-5.1344,-5.1362,-5.1545,-5.1376,-5.1363,-5.1399,-5.1381,-5.1386,-5.138,-5.1331,-5.1472,-5.1493,-5.1602,-5.1385,-5.1832,-5.1848,-5.1862,-5.205,-5.2084,-5.2113,0,0,0,0,0,-5.124,-5.1404,-5.1353,-5.1374,-5.1456,-5.1551,-5.1561,-5.1501,-5.1409,-5.1484,-5.1466,-5.138,-5.1579,-5.1487,-5.1509,-5.1623,-5.1825,-5.1844,-5.1861,-5.2036,-5.2077,-5.2112,0,0,0,0,0,0,-5.1423,-5.1402,-5.1346,-5.1513,-5.1535,-5.1523,-5.1616,-5.1547,-5.1596,-5.1577,-5.15,-5.1503,-5.1651,-5.1651,-5.1549,-5.1817,-5.1686,-5.1709,-5.1812,-5.1851,-5.1882,-5.1878,-5.1392,0,0,0,0,0,-5.1482,-5.1561,-5.1539,-5.1689,-5.1703,-5.1659,-5.1698,-5.1649,-5.1669,-5.1678,-5.1669,-5.1692,-5.1759,-5.1805,-5.1866,-5.205,-5.2048,-5.2139,-5.217,-5.2196,-5.2216,-5.2312,-5.2352,-5.1929,-5.1929,-5.1929,0,0,-5.1606,-5.1605,-5.1659,-5.1725,-5.1736,-5.182,-5.1667,-5.1762,-5.1823,-5.1692,-5.1818,-5.1814,-5.1834,-5.1995,-5.2065,-5.1998,-5.2333,-5.2219,-5.224,-5.2246,-5.2335,-5.2375,-5.2411,-5.1941,-5.1939,-5.1937,0,0,-5.1874,-5.1881,-5.2006,-5.2021,-5.204,-5.2009,-5.204,-5.2038,-5.203,-5.2156,-5.2059,-5.2131,-5.2249,-5.2267,-5.2292,-5.2568,-5.2491,-5.2591,-5.2755,-5.2849,-5.2882,-5.2911,-5.3008,-5.3044,-5.2611,-5.2612,-5.2612,0,-5.2025,-5.2146,-5.2079,-5.218,-5.2211,-5.2097,-5.2223,-5.224,-5.2279,-5.2304,-5.2229,-5.2375,-5.2381,-5.2543,-5.261,-5.2635,-5.2667,-5.2588,-5.2883,-5.2911,-5.2938,-5.3029,-5.3066,-5.2624,-5.2622,-5.2621,-5.262,0,-5.233,-5.2416,-5.2515,-5.2554,-5.2597,-5.271,-5.266,-5.2712,-5.2661,-5.2638,-5.2768,-5.2772,-5.283,-5.2866,-5.2817,-5.3022,-5.2979,-5.2896,-5.2762,-5.2991,-5.3075,-5.311,-5.2641,-5.2636,-5.2633,-5.263,0,0,-5.2712,-5.2713,-5.275,-5.2766,-5.278,-5.2845,-5.2953,-5.301,-5.3055,-5.3087,-5.3175,-5.3278,-5.32,-5.3229,-5.3181,-5.3264,-5.3481,-5.3169,-5.3169,-5.3225,-5.3705,-5.3766,-5.3808,-5.343,-5.3437,-5.3442,-5.3702,0,-5.2972,-5.3156,-5.3099,-5.3284,-5.3362,-5.3256,-5.3349,-5.3368,-5.3351,-5.3415,-5.3395,-5.3469,-5.3361,-5.3378,-5.3456,-5.3438,-5.3576,-5.3419,-5.351,-5.3515,-5.3506,-5.3852,-5.3917,-5.4163,-5.3735,-5.3741,-5.3745,0,-5.33,-5.3344,-5.3537,-5.3537,-5.3567,-5.3653,-5.37,-5.3763,-5.3782,-5.3763,-5.3796,-5.3731,-5.3837,-5.3706,-5.385,-5.3745,-5.3779,-5.3777,-5.3785,-5.3789,-5.3642,-5.3864,-5.424,-5.4276,-5.3797,-5.3793,-5.3789,0,-5.3557,-5.3664,-5.3792,-5.381,-5.3814,-5.3876,-5.3881,-5.3893,-5.3931,-5.3973,-5.3996,-5.4051,-5.4081,-5.4125,-5.4076,-5.3985,-5.4228,-5.4092,-5.4214,-5.4216,-5.4268,-5.4265,-5.4653,-5.4295,-5.4295,-5.4294,-5.4293,0,-5.3852,-5.3974,-5.3907,-5.3987,-5.412,-5.4054,-5.4188,-5.4181,-5.4193,-5.4268,-5.4181,-5.4254,-5.4186,-5.4254,-5.4217,-5.4341,-5.4356,-5.4343,-5.4331,-5.435,-5.4351,-5.4369,-5.435,-5.4304,-5.4302,-5.43,-5.4298,0,-5.4159,-5.412,-5.4253,-5.4246,-5.4247,-5.4346,-5.4339,-5.4412,-5.4389,-5.4486,-5.4505,-5.4469,-5.4544,-5.45,-5.4577,-5.4552,-5.4713,-5.468,-5.4707,-5.4697,-5.482,-5.4808,-5.5232,-5.5283,-5.4895,-5.4899,-5.4902,0,-5.4349,-5.444,-5.4443,-5.4487,-5.4497,-5.457,-5.4608,-5.4548,-5.4592,-5.4621,-5.469,-5.4757,-5.4807,-5.4931,-5.4912,-5.497,-5.4935,-5.508,-5.4943,-5.4959,-5.4935,-5.4929,-5.4937,-5.5107,-5.5111,-5.5115,-5.5118,0,-5.4689,-5.4666,-5.4724,-5.4776,-5.4824,-5.4862,-5.4893,-5.4935,-5.4875,-5.4928,-5.5003,-5.5042,-5.512,-5.5187,-5.5237,-5.5241,-5.517,-5.5162,-5.5192,-5.521,-5.5221,-5.5215,-5.4779,-5.5151,-5.5148,-5.5145,-5.5144,-5.5142,-5.4942,-5.5017,-5.5031,-5.5099,-5.5116,-5.5147,-5.5215,-5.52,-5.5262,-5.532,-5.5281,-5.5369,-5.5386,-5.5445,-5.546,-5.5528,-5.5469,-5.5515,-5.5526,-5.5537,-5.5553,-5.5213,-5.5537,-5.5536,-5.5535,-5.5534,-5.5533,0,-5.5275,-5.5279,-5.5342,-5.5388,-5.5442,-5.5371,-5.5402,-5.5451,-5.553,-5.5552,-5.5603,-5.5689,-5.5754,-5.5741,-5.5799,-5.5857,-5.5825,-5.5874,-5.5868,-5.587,-5.5603,-5.5569,-5.5898,-5.5898,-5.5898,-5.5898,-5.5898,-5.5898,-5.5455,-5.5578,-5.5557,-5.5688,-5.569,-5.5776,-5.5799,-5.5828,-5.5845,-5.5945,-5.5998,-5.5989,-5.5997,-5.6056,-5.6112,-5.6106,-5.6131,-5.6192,-5.6174,-5.5925,-5.5888,-5.5854,-5.5822,-5.6198,-5.6199,-5.6434,-5.6436,-5.6438]},{"header":{"parameterUnit":"m.s-1","parameterCategory":1,"la1":30.2991,"la2":30.254,"lo1":-89.0895,"lo2":-89.0444,"dy":0.0017,"dx":0.0017,"nx":28,"ny":28,"refTime":"2025-03-01T09:00:00:Z","depth":0,"parameterNumber":3,"parameterNumberName":"V-component_of_WINDS"},"data":[0,0,0,0,0,0,0,0,0,0,0,0,0,0,0,0,0,0,0,0,0,0,0,0,0,0,0,0,0,0,0,0,0,0,0,0,0,0,0,0,0,0,0,0,0,0,0,0,0,0,0,0,0,0,0,0,0,0,0.6279,0.6279,0,0.6267,0.6267,0.6267,0.6209,0.6207,0.6206,0.6204,0.6192,0.6193,0.6194,0,0,0,0,0,0,0,0,0,0,0,0,0,0.6253,0.6253,0.6279,0.6279,0.6279,0.6267,0.6267,0.6267,0.6209,0.6207,0.6205,0.6204,0.6192,0.6193,0.6194,0,0,0,0,0,0,0,0,0,0,0,0,0,0.6255,0.6254,0.6279,0.6248,0.6245,0.6267,0.6267,0.6267,0.6209,0.6207,0.6205,0.6203,0.6191,0.6193,0.6194,0.6244,0,0,0.6199,0.6199,0,0,0,0,0,0,0,0,0.6255,0.6256,0.6253,0.6251,0.6247,0.6237,0.6253,0.6259,0.621,0.6223,0.6204,0.6202,0.6209,0.6209,0.6211,0.6244,0.6243,0.6199,0.62,0.62,0.6201,0,0,0,0,0,0,0,0.6255,0.6256,0.6274,0.6253,0.625,0.6236,0.6234,0.6254,0.6228,0.6222,0.6217,0.6217,0.6207,0.621,0.621,0.6243,0.6199,0.62,0.6201,0.6201,0.6318,0.6321,0,0,0,0,0,0,0.6259,0.6256,0.6275,0.6274,0.6246,0.6238,0.6235,0.6243,0.6227,0.6223,0.6219,0.6214,0.6208,0.6209,0.621,0.6268,0.62,0.6202,0.6202,0.6316,0.6319,0.6321,0,0,0,0,0,0,0.6258,0.6261,0.6275,0.6264,0.6265,0.624,0.6249,0.6243,0.6246,0.6225,0.622,0.6226,0.6207,0.6208,0.6237,0.6267,0.6202,0.6203,0.6314,0.6317,0.632,0.6386,0,0,0,0,0,0,0.6258,0.6261,0.628,0.6265,0.6265,0.6302,0.6251,0.6245,0.6249,0.6243,0.6231,0.6227,0.6205,0.6235,0.6238,0.6268,0.6205,0.6311,0.6315,0.6319,0.6381,0.6391,0.64,0,0,0,0,0,0.6257,0.6298,0.6281,0.6283,0.6288,0.6304,0.6304,0.6279,0.6251,0.627,0.6257,0.6227,0.6263,0.6238,0.6241,0.6272,0.6309,0.6314,0.6319,0.6377,0.6389,0.64,0,0,0,0,0,0,0.6316,0.6295,0.6276,0.6313,0.6311,0.6294,0.6317,0.6292,0.6297,0.6292,0.626,0.6257,0.6292,0.6285,0.6257,0.6321,0.6281,0.6287,0.6324,0.6336,0.6345,0.6346,0.6206,0,0,0,0,0,0.6334,0.6349,0.633,0.6364,0.6364,0.6341,0.6347,0.6328,0.6324,0.6322,0.6311,0.6308,0.6319,0.6327,0.6336,0.638,0.6377,0.6403,0.6412,0.642,0.6426,0.645,0.6462,0.6338,0.6338,0.6338,0,0,0.637,0.6361,0.6372,0.6376,0.6372,0.6389,0.634,0.6359,0.6372,0.6325,0.6352,0.6344,0.6339,0.6377,0.6392,0.6372,0.646,0.6427,0.6433,0.6434,0.6457,0.6469,0.6479,0.6341,0.6341,0.634,0,0,0.6445,0.6438,0.6468,0.6465,0.646,0.6444,0.6451,0.6439,0.6432,0.6458,0.6424,0.6439,0.6458,0.6456,0.6458,0.6534,0.6508,0.6538,0.6588,0.6612,0.6622,0.663,0.6659,0.6669,0.6544,0.6544,0.6544,0,0.649,0.6513,0.6486,0.6508,0.6511,0.6471,0.6501,0.6499,0.6497,0.6501,0.6478,0.6502,0.6496,0.6533,0.6552,0.6554,0.6562,0.6539,0.6623,0.6631,0.6638,0.6665,0.6676,0.6547,0.6547,0.6547,0.6546,0,0.657,0.6587,0.6612,0.6612,0.6618,0.6644,0.662,0.663,0.6611,0.6598,0.6627,0.6618,0.6625,0.6633,0.6613,0.6668,0.6655,0.6628,0.6587,0.6654,0.6679,0.6689,0.6553,0.6552,0.655,0.655,0,0,0.6681,0.6666,0.6676,0.6676,0.6668,0.6681,0.6706,0.6713,0.6723,0.6723,0.6744,0.6762,0.6737,0.6739,0.6719,0.6741,0.6804,0.6711,0.671,0.6729,0.6865,0.6886,0.6898,0.6786,0.6788,0.6789,0.6866,0,0.6753,0.6794,0.6771,0.6816,0.6832,0.6795,0.6816,0.6814,0.6804,0.6816,0.6804,0.6818,0.6783,0.6785,0.6804,0.6792,0.6831,0.6786,0.6805,0.6807,0.6809,0.6911,0.6933,0.7005,0.6875,0.6876,0.6878,0,0.6842,0.6848,0.6895,0.6886,0.6891,0.6911,0.6917,0.6929,0.6927,0.6917,0.6921,0.6897,0.6921,0.6881,0.6915,0.6885,0.6892,0.6887,0.689,0.6891,0.6847,0.6916,0.7028,0.7039,0.6892,0.6891,0.689,0,0.692,0.6939,0.697,0.6971,0.6961,0.6976,0.6972,0.6968,0.6974,0.698,0.6984,0.6992,0.6996,0.7003,0.6982,0.6955,0.7019,0.6977,0.7013,0.7014,0.7028,0.7028,0.7144,0.7032,0.7032,0.7031,0.7031,0,0.7003,0.7034,0.7005,0.7024,0.7057,0.703,0.7064,0.7057,0.7053,0.7071,0.7039,0.7056,0.7027,0.7041,0.7025,0.7056,0.7058,0.7052,0.7047,0.7055,0.7056,0.7059,0.7054,0.7034,0.7034,0.7033,0.7033,0,0.7095,0.7077,0.7108,0.7097,0.7095,0.712,0.711,0.7128,0.7115,0.7138,0.7142,0.7123,0.7138,0.7118,0.7131,0.712,0.7163,0.7151,0.7164,0.7161,0.7199,0.7196,0.7321,0.7337,0.7214,0.7215,0.7216,0,0.715,0.7173,0.7164,0.7174,0.7173,0.7188,0.7196,0.7171,0.7179,0.7179,0.7197,0.721,0.7219,0.7246,0.7233,0.7244,0.7232,0.7275,0.7233,0.7241,0.7234,0.7233,0.7236,0.7284,0.7285,0.7286,0.7287,0,0.725,0.724,0.7251,0.7261,0.727,0.7276,0.7279,0.7289,0.7263,0.7275,0.7291,0.7298,0.7312,0.7326,0.7334,0.733,0.7305,0.7301,0.731,0.7319,0.7326,0.7324,0.7189,0.7298,0.7297,0.7296,0.7296,0.7295,0.7325,0.7345,0.7342,0.7357,0.7357,0.7361,0.7378,0.7368,0.7381,0.7391,0.7376,0.7396,0.7395,0.7402,0.7402,0.7418,0.7399,0.7412,0.7415,0.7419,0.7425,0.7323,0.7419,0.7418,0.7418,0.7418,0.7418,0,0.7424,0.7421,0.7435,0.7442,0.7453,0.7429,0.7432,0.7444,0.7462,0.7463,0.7473,0.7493,0.7506,0.7495,0.7507,0.7522,0.7511,0.7526,0.7525,0.7525,0.7441,0.7432,0.7535,0.7535,0.7535,0.7534,0.7534,0.7534,0.7477,0.7509,0.75,0.7532,0.7528,0.7549,0.7553,0.7557,0.7558,0.7581,0.7592,0.7585,0.7582,0.7593,0.7605,0.7601,0.7608,0.7627,0.762,0.7542,0.753,0.7519,0.7511,0.7628,0.7628,0.7702,0.7703,0.7703]}]]